Location: Wien
(48.2082°N, 16.3738°E)
Time: 20:42:50
(UTC+02:00)

CUBEBUG 2 - Visible Passes

Search period start: 20 October 2019 00:00
Search period end: 29 October 2019 23:00
Orbit: 585 x 699 km, 97.6° (Epoch: 19 October)

Date Brightness Start Highest point End Pass type
(mag) Time Alt. Az. Time Alt. Az. Time Alt. Az.
20 Oct ? 05:57:34 10° NNE 06:01:46 45° E 06:06:05 10° S visible
20 Oct ? 18:37:24 10° SW 18:39:56 16° W 18:42:29 10° NW visible
21 Oct ? 06:21:34 10° NNE 06:25:58 78° ESE 06:30:30 10° S visible
22 Oct ? 05:10:21 10° NE 05:13:09 16° E 05:15:58 10° SE visible
22 Oct ? 06:45:45 10° N 06:50:06 61° WNW 06:54:34 10° SSW visible
23 Oct ? 05:33:42 10° NE 05:37:30 27° E 05:41:22 10° SSE visible
24 Oct ? 05:57:29 10° NNE 06:01:46 46° E 06:06:10 10° S visible
24 Oct ? 18:37:23 10° SW 18:39:53 16° W 18:42:26 10° NW visible
25 Oct ? 06:21:30 10° NNE 06:25:59 80° ESE 06:30:34 10° S visible
26 Oct ? 05:10:13 10° NE 05:13:09 17° E 05:16:07 10° SE visible
26 Oct ? 06:45:41 10° N 06:50:05 61° WNW 06:54:38 10° SSW visible
27 Oct ? 04:33:37 10° NE 04:37:30 28° E 04:41:28 10° SSE visible
27 Oct ? 17:11:58 10° SSW 17:15:28 26° W 17:19:03 10° NW visible
28 Oct ? 04:57:24 10° NNE 05:01:47 47° E 05:06:15 10° S visible
28 Oct ? 17:37:20 10° SW 17:39:51 15° W 17:42:24 10° NW visible
29 Oct ? 03:48:31 10° E 03:48:43 10° E 03:48:56 10° E visible
29 Oct ? 05:21:26 10° NNE 05:25:59 81° ESE 05:30:38 10° S visible
